Society Hill, SC

7:05 AM EDT on October 01, 2016 (GMT -0400)
Darlington County Jetport

Weather History for KUDG - August, 2013

Change the Weather History Date:

Friday, August 23, 2013

  Actual Average (KFLO) Record (KFLO)
Temperature  
Mean Temperature 81 °F 79 °F  
Max Temperature 93 °F 89 °F 102 °F (1968)
Min Temperature 69 °F 70 °F 60 °F (1981)
Degree Days  
Heating Degree Days 0 0  
Month to date heating degree days 0  
Since 1 June heating degree days 1  
Since 1 July heating degree days 0  
Cooling Degree Days 16 14  
Month to date cooling degree days 354  
Year to date cooling degree days 1560  
Since 1 June cooling degree days 1253  
Growing Degree Days 31 (Base 50)    
Moisture  
Dew Point 70 °F    
Average Humidity 73    
Maximum Humidity 88    
Minimum Humidity 46    
Precipitation  
Precipitation 0.00 in 0.17 in 1.20 in (1990)
Month to date precipitation 3.96  
Year to date precipitation 29.20  
Sea Level Pressure  
Sea Level Pressure 30.03 in    
Wind  
Wind Speed 3 mph (West)    
Max Wind Speed 17 mph    
Max Gust Speed 26 mph    
Visibility 10 miles    
Events Thunderstorm    
T = Trace of Precipitation, MM = Missing Value Source: NWS Daily Summary

Daily Weather History Graph

Daily Weather History Graph

Search for Another Location

Airport or City:

Trip Planner

Search our weather history database for the weather conditions in past years. The results will help you decide how hot, cold, wet, or windy it might be!

Date:

Astronomy

Aug. 23, 2013 Rise Set
Actual Time 6:46 AM EDT 7:57 PM EDT
Civil Twilight 6:20 AM EDT 8:23 PM EDT
Nautical Twilight 5:49 AM EDT 8:54 PM EDT
Astronomical Twilight 5:16 AM EDT 9:26 PM EDT
Moon 9:26 PM EDT (8/23) 9:29 AM EDT (8/23)
Length of Visible Light 14h 02m
Length of Day
13h 10m
Waning Gibbous, 91% of the Moon is Illuminated
Aug 23
Waning Gibbous
Aug 28
Last Quarter
Sep 5
New
Sep 12
First Quarter
Sep 19
Full

Hourly Weather History & Observations

Time (EDT) Temp. Heat Index Dew Point Humidity Pressure Visibility Wind Dir Wind Speed Gust Speed Precip Events Conditions
12:15 AM 73.4 °F - 68.0 °F 83% 30.05 in 10.0 mi Calm Calm - N/A   Clear
12:35 AM 73.4 °F - 68.0 °F 83% 30.05 in 10.0 mi South 4.6 mph - N/A   Clear
12:55 AM 73.4 °F - 68.0 °F 83% 30.06 in 10.0 mi SW 5.8 mph - N/A   Clear
1:15 AM 73.4 °F - 68.0 °F 83% 30.05 in 10.0 mi SSW 5.8 mph - N/A   Clear
1:35 AM 73.4 °F - 68.0 °F 83% 30.06 in 10.0 mi WSW 5.8 mph - N/A   Clear
1:55 AM 73.4 °F - 68.0 °F 83% 30.05 in 10.0 mi WSW 4.6 mph - N/A   Clear
2:15 AM 73.4 °F - 68.0 °F 83% 30.05 in 10.0 mi West 3.5 mph - N/A   Partly Cloudy
2:35 AM 71.6 °F - 68.0 °F 88% 30.04 in 10.0 mi Calm Calm - N/A   Mostly Cloudy
2:55 AM 73.4 °F - 68.0 °F 83% 30.03 in 10.0 mi SW 3.5 mph - N/A   Scattered Clouds
3:15 AM 71.6 °F - 66.2 °F 83% 30.03 in 10.0 mi WSW 4.6 mph - N/A   Clear
3:35 AM 71.6 °F - 66.2 °F 83% 30.02 in 10.0 mi Calm Calm - N/A   Clear
3:55 AM 71.6 °F - 66.2 °F 83% 30.02 in 10.0 mi SSW 6.9 mph - N/A   Clear
4:15 AM 71.6 °F - 66.2 °F 83% 30.02 in 10.0 mi SW 6.9 mph - N/A   Clear
4:35 AM 71.6 °F - 66.2 °F 83% 30.02 in 10.0 mi SW 6.9 mph - N/A   Clear
4:55 AM 71.6 °F - 66.2 °F 83% 30.01 in 10.0 mi SW 6.9 mph - N/A   Clear
5:15 AM 71.6 °F - 66.2 °F 83% 30.02 in 10.0 mi SW 6.9 mph - N/A   Clear
5:35 AM 71.6 °F - 66.2 °F 83% 30.01 in 10.0 mi SW 5.8 mph - N/A   Clear
5:55 AM 71.6 °F - 66.2 °F 83% 30.02 in 10.0 mi WSW 4.6 mph - N/A   Clear
6:15 AM 71.6 °F - 66.2 °F 83% 30.02 in 10.0 mi SW 4.6 mph - N/A   Clear
6:35 AM 69.8 °F - 66.2 °F 88% 30.02 in 8.0 mi Calm Calm - N/A   Clear
6:55 AM 71.6 °F - 66.2 °F 83% 30.03 in 7.0 mi Calm Calm - N/A   Clear
7:15 AM 71.6 °F - 66.2 °F 83% 30.03 in 5.0 mi Calm Calm - N/A   Clear
7:35 AM 71.6 °F - 66.2 °F 83% 30.04 in 7.0 mi Calm Calm - N/A   Clear
7:55 AM 71.6 °F - 66.2 °F 83% 30.05 in 8.0 mi SW 3.5 mph - N/A   Clear
8:15 AM 71.6 °F - 68.0 °F 88% 30.06 in 7.0 mi Calm Calm - N/A   Clear
8:35 AM 73.4 °F - 68.0 °F 83% 30.06 in 8.0 mi Calm Calm - N/A   Partly Cloudy
8:55 AM 73.4 °F - 69.8 °F 88% 30.06 in 10.0 mi Calm Calm - N/A   Clear
9:15 AM 75.2 °F - 69.8 °F 83% 30.06 in 10.0 mi Calm Calm - N/A   Clear
9:35 AM 78.8 °F - 69.8 °F 74% 30.06 in 10.0 mi NW 4.6 mph - N/A   Clear
9:55 AM 78.8 °F - 71.6 °F 78% 30.06 in 10.0 mi NNW 3.5 mph - N/A   Clear
10:15 AM 80.6 °F 84.6 °F 71.6 °F 74% 30.06 in 10.0 mi North 4.6 mph - N/A   Clear
10:35 AM 82.4 °F 87.2 °F 71.6 °F 70% 30.07 in 10.0 mi Calm Calm - N/A   Clear
10:55 AM 84.2 °F 90.9 °F 73.4 °F 70% 30.07 in 10.0 mi Calm Calm - N/A   Partly Cloudy
11:15 AM 84.2 °F 90.9 °F 73.4 °F 70% 30.06 in 10.0 mi West 3.5 mph - N/A   Partly Cloudy
11:35 AM 84.2 °F 90.9 °F 73.4 °F 70% 30.06 in 10.0 mi WNW 8.1 mph - N/A   Partly Cloudy
11:55 AM 86.0 °F 93.4 °F 73.4 °F 66% 30.05 in 10.0 mi NW 6.9 mph - N/A   Clear
12:15 PM 86.0 °F 91.8 °F 71.6 °F 62% 30.05 in 10.0 mi NW 4.6 mph - N/A   Clear
12:35 PM 87.8 °F 95.6 °F 73.4 °F 62% 30.04 in 10.0 mi North 6.9 mph - N/A   Partly Cloudy
12:55 PM 87.8 °F 95.6 °F 73.4 °F 62% 30.04 in 10.0 mi NNW 5.8 mph - N/A   Partly Cloudy
1:15 PM 87.8 °F 95.6 °F 73.4 °F 62% 30.03 in 10.0 mi Calm Calm - N/A   Partly Cloudy
1:35 PM 89.6 °F 96.2 °F 71.6 °F 55% 30.03 in 10.0 mi North 4.6 mph - N/A   Partly Cloudy
1:55 PM 87.8 °F 93.8 °F 71.6 °F 58% 30.02 in 10.0 mi NNW 3.5 mph - N/A   Scattered Clouds
2:15 PM 89.6 °F 98.2 °F 73.4 °F 59% 30.01 in 10.0 mi NNE 3.5 mph - N/A   Mostly Cloudy
2:35 PM 89.6 °F 96.2 °F 71.6 °F 55% 30.00 in 10.0 mi North 3.5 mph - N/A   Partly Cloudy
2:55 PM 89.6 °F 96.2 °F 71.6 °F 55% 30.00 in 10.0 mi Calm Calm - N/A   Clear
3:15 PM 89.6 °F 94.7 °F 69.8 °F 52% 29.99 in 4.0 mi Calm Calm - N/A   Clear
3:35 PM 91.4 °F 100.1 °F 73.4 °F 55% 29.98 in 5.0 mi NNE 3.5 mph - N/A   Partly Cloudy
3:55 PM 91.4 °F 98.4 °F 71.6 °F 52% 29.98 in 10.0 mi North 3.5 mph - N/A   Clear
4:15 PM 91.4 °F 96.8 °F 69.8 °F 49% 29.97 in 10.0 mi NW 8.1 mph - N/A   Clear
4:35 PM 89.6 °F 94.7 °F 69.8 °F 52% 29.97 in 10.0 mi North 5.8 mph - N/A   Clear
4:55 PM 91.4 °F 98.4 °F 71.6 °F 52% 29.97 in 10.0 mi North 4.6 mph - N/A   Clear
5:15 PM 91.4 °F 98.4 °F 71.6 °F 52% 29.96 in 10.0 mi North 5.8 mph - N/A   Clear
5:35 PM 91.4 °F 98.4 °F 71.6 °F 52% 29.97 in 10.0 mi North 4.6 mph - N/A   Clear
5:55 PM 91.4 °F 98.4 °F 71.6 °F 52% 29.97 in 10.0 mi Calm Calm - N/A   Clear
6:15 PM 93.2 °F 98.8 °F 69.8 °F 46% 29.97 in 10.0 mi Calm Calm - N/A   Clear
6:35 PM 91.4 °F 98.4 °F 71.6 °F 52% 29.97 in 10.0 mi Calm Calm - N/A   Clear
6:55 PM 89.6 °F 99.8 °F 75.2 °F 62% 29.97 in 10.0 mi Calm Calm - N/A   Clear
7:15 PM 87.8 °F 97.6 °F 75.2 °F 66% 29.98 in 10.0 mi Calm Calm - N/A   Partly Cloudy
7:35 PM 84.2 °F 92.3 °F 75.2 °F 74% 29.99 in 10.0 mi Calm Calm - N/A   Mostly Cloudy
7:55 PM 84.2 °F 92.3 °F 75.2 °F 74% 30.00 in 10.0 mi Calm Calm - N/A   Overcast
8:15 PM 82.4 °F 89.5 °F 75.2 °F 79% 30.00 in 10.0 mi NNE 3.5 mph - N/A Thunderstorm Thunderstorm
8:35 PM 82.4 °F 89.5 °F 75.2 °F 79% 30.01 in 10.0 mi South 16.1 mph 26.5 mph N/A Thunderstorm Thunderstorm
8:55 PM 75.2 °F - 66.2 °F 73% 30.03 in 10.0 mi South 17.3 mph 23.0 mph N/A Thunderstorm Thunderstorm
9:15 PM 75.2 °F - 66.2 °F 73% 30.03 in 10.0 mi South 9.2 mph - N/A Thunderstorm Thunderstorm
9:35 PM 73.4 °F - 66.2 °F 78% 30.04 in 10.0 mi SW 3.5 mph - N/A Thunderstorm Thunderstorm
9:55 PM 75.2 °F - 66.2 °F 73% 30.05 in 10.0 mi Calm Calm - N/A Thunderstorm Mostly Cloudy
10:15 PM 75.2 °F - 66.2 °F 73% 30.04 in 10.0 mi South 3.5 mph - N/A   Partly Cloudy
10:35 PM 73.4 °F - 68.0 °F 83% 30.04 in 10.0 mi Calm Calm - N/A   Clear
10:55 PM 73.4 °F - 68.0 °F 83% 30.04 in 8.0 mi Calm Calm - N/A   Clear
11:15 PM 73.4 °F - 68.0 °F 83% 30.05 in 10.0 mi WNW 3.5 mph - N/A   Clear
11:35 PM 73.4 °F - 68.0 °F 83% 30.05 in 10.0 mi South 3.5 mph - N/A   Mostly Cloudy
11:55 PM 73.4 °F - 68.0 °F 83% 30.05 in 10.0 mi Calm Calm - N/A   Scattered Clouds